sat.trackr.live / text

‹ back to catalog

PHISAT 2

NORAD 60470 · 2024-149C

PAYLOAD ACTIVE UNKNOWN

§ Identity

Operator
Country
UK
Launch date
2024-08-16
Launch site
AFWTR
Launch vehicle
Mass (kg)
RCS (m²)

External: N2YO · Heavens-Above · Gunter

§ Orbital elements

Epoch: 2026-05-25T02:30:22.709664Z

Period
94.08 min
Inclination
97.3755°
Eccentricity
0.0001234
Mean motion
15.30666786 rev/d
Perigee alt
473.0 km
Apogee alt
474.7 km
Semi-major
6,852.0 km
B*
2.0818e-4
RAAN
224.4557°
Arg perigee
39.5889°
Mean anomaly
320.5442°
Rev number
9,846

§ Raw data

PHISAT 21 60470U 24149C   26145.10442951  .00006094  00000+0  20818-3 0  99912 60470  97.3755 224.4557 0001234  39.5889 320.5442 15.30666786 98461

JSON: /api/v1/satellites/60470 · /tle

For live sub-satellite position, see the globe view (requires WebGL).

§ Visibility from observer

Set your observer location to see the next 7 days of passes ≥ 10°. The values pass through the URL so the page stays shareable.

No JS? Fill the form by hand. The geolocation button needs JavaScript.